Location: Unspecified
(43.4354°N, 0.0000°E)
Time: 01:13:17
(UTC+00:00)

Tiros 1 despin weight - Pass Details

Date: 30 June 2019
Orbit: 594 x 642 km, 48.2° (Epoch: 17 August)

Event Time Altitude Azimuth Distance (km) Brightness Sun altitude
Rises 00:14:48 0° 291° (WNW) 2,852 ? -23.3°
Reaches altitude 10° 00:17:09 10° 295° (WNW) 1,942 ? -23.3°
Maximum altitude 00:21:32 57° 15° (NNE) 701 ? -23.2°
Drops below altitude 10° 00:25:53 10° 95° (E) 1,924 ? -23.2°
Sets 00:28:11 0° 99° (E) 2,824 ? -23.1°
